GFSNIL_prec_cthk_000.txt.gz
RH
64 58 57 57 56 53 49 47 39 39 41 45 46 50 55 58 59 63 63 66 65 66
60 57 56 53 53 54 50 46 43 46 51 53 57 61 60 66 71 77 82 86 94 88
60 61 59 57 52 49 49 53 55 55 63 66 66 67 71 77 83 89 91 92 93 94
66 58 50 49 51 53 62 61 65 68 66 69 72 83 88 94 97 96 95 92 90 86
54 56 53 61 67 68 67 67 62 65 70 78 84 91 95 97 96 94 91 88 85 81
60 66 64 60 62 68 65 64 66 72 80 88 94 98 97 95 94 94 92 89 86 80
55 55 52 57 61 63 68 74 77 83 88 89 85 87 90 92 92 89 85 81 76 72
47 49 54 55 56 60 62 63 67 66 65 65 64 64 61 65 70 75 74 71 69 67
47 50 54 58 59 58 60 62 58 53 47 41 40 38 35 35 40 48 53 59 59 55
53 55 56 59 61 61 59 51 39 35 36 38 40 38 37 36 37 39 44 47 50 49
55 57 61 64 66 61 45 36 36 37 40 45 51 47 46 44 45 49 50 50 51 50
61 66 69 75 62 43 38 35 41 49 53 56 57 55 51 48 50 55 57 56 54 52
64 71 78 56 39 40 41 46 52 59 62 62 64 69 64 61 61 59 58 57 58 56
73 80 55 41 41 45 49 53 57 61 68 76 80 79 76 72 73 72 66 65 65 63

GFSNIL_prec_cthk_003.txt.gz
RH
65 65 64 62 60 58 58 53 51 51 50 54 57 57 60 64 60 59 63 66 68 70
73 71 68 67 65 62 59 54 57 61 59 55 58 62 65 68 68 67 75 78 86 87
78 80 74 68 69 71 68 64 52 54 62 67 64 63 69 70 74 80 86 89 95 95
77 75 77 76 75 65 57 53 52 47 50 57 62 68 75 80 87 92 94 96 94 91
79 76 69 71 60 54 47 45 46 50 58 67 78 84 92 92 90 93 95 96 96 94
73 62 53 43 40 43 48 51 54 58 67 73 83 88 85 85 87 89 90 90 91 91
48 42 39 42 46 51 51 54 58 62 65 67 65 59 60 55 50 49 60 68 72 74
38 39 41 46 48 50 53 58 59 59 60 54 51 51 44 39 35 35 40 42 48 51
44 45 49 50 50 54 57 59 60 54 52 51 49 50 42 42 42 42 41 45 47 50
55 56 56 57 57 63 70 64 54 53 51 53 56 57 50 48 49 50 49 53 57 57
62 64 62 64 66 72 64 57 54 53 55 54 59 65 61 62 63 64 68 68 67 63
65 71 72 70 75 69 60 60 53 54 57 59 66 73 74 72 71 74 74 74 73 72
66 75 79 77 79 64 61 58 52 53 59 64 71 78 78 78 76 77 75 78 80 74
78 81 80 83 70 59 57 57 54 54 58 68 80 85 88 88 91 95 93 91 87 80

GFSNIL_prec_cthk_006.txt.gz
RH
67 69 71 74 76 73 67 68 69 61 54 54 51 50 46 46 49 51 52 56 63 62
65 69 75 75 72 72 74 70 63 54 46 47 40 40 44 51 57 57 63 68 71 72
70 71 70 73 68 66 56 46 38 39 36 38 41 46 54 57 65 71 77 85 92 95
73 70 69 65 51 42 36 27 27 32 36 42 49 55 62 74 79 82 84 90 96 97
68 65 58 48 42 35 31 33 40 46 45 48 54 58 66 69 71 71 75 82 84 83
59 52 50 44 43 39 39 45 47 47 48 48 49 49 49 50 48 46 45 42 39 39
56 47 42 43 40 44 47 47 46 51 55 54 54 52 51 47 44 41 38 33 29 34
48 47 44 45 47 50 49 50 55 57 54 54 54 54 50 44 45 49 49 45 43 42
67 83 76 79 69 57 58 60 64 60 56 53 53 55 53 51 59 63 66 64 60 56
78 86 85 73 63 70 67 69 73 59 58 57 58 60 56 57 67 73 73 69 68 68
72 73 86 61 71 76 78 82 61 57 60 61 59 60 62 64 74 79 78 77 75 74
73 90 77 72 76 82 87 62 56 58 62 58 56 53 64 79 85 88 87 90 94 93
82 95 89 74 80 90 66 54 57 55 52 55 52 63 84 91 92 90 91 95 94 91
87 96 76 79 87 68 51 55 51 51 54 51 57 77 88 89 88 93 95 97 95 90

GFSNIL_prec_cthk_009.txt.gz
RH
57 63 67 58 72 68 66 63 56 48 45 42 36 34 36 40 46 48 52 60 55 64
68 70 68 74 75 63 61 58 50 44 30 29 29 31 34 40 43 50 56 64 71 75
66 71 64 64 61 55 51 45 37 29 29 30 34 40 46 50 51 55 65 74 80 87
49 48 52 50 43 39 34 32 31 32 34 39 44 43 42 42 42 43 45 50 57 61
47 56 54 51 45 39 42 40 43 37 40 40 46 47 46 46 49 47 46 48 46 44
53 57 64 62 54 67 73 72 66 50 44 47 50 48 49 50 48 47 48 50 51 50
43 57 70 61 76 84 94 80 61 60 47 56 52 51 47 45 45 51 54 52 53 55
55 58 64 84 83 98 91 70 71 71 55 67 48 48 49 53 54 54 51 52 58 63
43 56 66 74 95 87 82 71 81 65 65 48 51 54 60 60 56 54 59 67 69 70
46 48 60 69 91 94 90 81 79 66 47 53 59 63 62 55 52 68 78 81 80 78
40 43 52 77 91 97 86 79 68 48 47 57 59 56 49 50 72 83 88 88 83 86
44 48 57 79 99 88 72 71 55 43 52 51 52 50 46 66 79 83 86 87 92 92
48 56 62 62 74 72 77 61 44 48 50 53 51 48 53 73 79 82 87 92 95 97
55 64 71 77 82 84 67 46 46 48 53 53 49 45 59 70 78 84 92 96 98 98

GFSNIL_prec_cthk_012.txt.gz
RH
60 64 62 63 57 67 59 55 46 53 43 30 26 26 25 26 30 35 42 48 54 59
57 52 51 41 40 39 45 47 55 48 31 28 28 31 37 39 37 33 40 47 54 63
35 33 37 37 44 50 52 54 58 49 44 46 50 54 52 51 41 36 39 40 40 46
36 39 40 40 47 59 57 59 64 71 70 66 68 61 50 48 39 41 44 46 49 52
44 45 44 48 49 55 72 82 78 87 80 72 66 64 56 43 47 43 43 44 46 49
35 35 36 45 59 68 75 81 88 74 81 75 72 74 57 45 42 45 49 52 51 50
35 32 36 46 56 65 71 73 72 84 82 79 80 63 51 49 48 49 51 51 50 49
28 26 32 36 39 47 57 65 79 90 90 80 61 55 55 51 48 49 44 45 59 67
27 29 31 30 37 49 68 82 94 92 80 62 56 57 53 48 45 42 45 63 68 71
29 33 34 35 44 58 80 90 86 79 76 56 54 53 49 46 44 43 61 67 73 74
32 38 37 43 51 56 85 82 81 78 62 54 52 47 44 44 40 55 67 76 81 85
38 40 42 51 63 69 73 77 83 67 54 48 45 45 44 39 40 61 74 82 89 96
41 46 50 59 67 76 86 88 78 56 44 46 46 45 42 38 48 67 77 89 93 96
45 50 57 64 73 83 88 88 59 47 45 46 46 44 42 39 55 71 83 90 93 96

GFSNIL_prec_cthk_015.txt.gz
RH
53 49 44 39 33 34 35 37 44 50 57 54 53 50 49 49 47 48 49 44 49 38
45 41 38 36 35 35 37 42 59 68 66 66 66 68 63 59 56 61 51 53 53 45
41 37 36 39 37 39 41 49 51 53 64 75 77 74 72 69 64 62 52 46 47 43
33 36 34 34 35 42 52 62 65 65 67 74 79 78 78 69 68 52 44 45 51 51
36 34 32 30 32 42 44 43 47 56 61 67 74 73 75 75 62 48 46 51 54 53
36 30 26 25 25 26 28 31 45 53 55 60 72 81 77 61 50 53 53 55 54 49
30 27 28 31 30 27 32 45 50 59 70 79 84 78 65 51 54 54 54 52 46 42
28 28 30 31 30 28 36 51 66 65 76 81 77 74 53 54 53 51 47 44 42 52
30 32 34 34 28 33 40 50 55 75 78 77 79 65 52 49 46 45 43 41 47 63
37 38 36 34 31 36 43 54 70 73 73 77 75 50 43 44 44 42 40 42 62 71
38 34 35 35 38 45 52 60 69 78 84 81 55 43 41 41 39 39 39 55 71 83
34 34 34 38 45 51 59 67 76 81 86 62 47 41 42 39 38 39 41 67 82 90
34 33 37 43 49 57 67 76 81 80 60 50 44 42 43 40 40 40 46 74 89 93
34 38 42 46 55 63 70 68 61 57 53 47 44 46 43 41 41 43 52 76 89 94

GFSNIL_prec_cthk_021.txt.gz
RH
60 55 53 51 46 40 35 29 24 24 29 36 45 43 48 44 40 42 42 43 49 52
64 52 51 47 41 35 28 25 22 24 31 36 34 38 42 43 47 48 50 54 55 50
52 53 52 46 38 30 26 23 22 22 30 35 39 46 50 51 50 51 58 58 55 41
56 56 49 39 31 30 28 26 24 25 30 37 41 48 50 53 54 60 66 65 60 42
56 51 42 33 34 33 30 27 25 26 31 37 42 50 51 53 65 73 70 69 51 42
53 47 37 39 37 34 29 27 28 30 34 41 52 55 55 60 73 71 76 69 44 41
51 42 42 40 38 32 29 28 30 33 37 42 50 62 65 71 75 79 72 43 40 41
46 44 41 39 34 30 29 31 33 36 38 45 57 66 72 75 79 68 44 39 39 38
45 39 37 34 31 29 30 32 36 40 45 53 59 67 73 76 57 44 40 39 39 36
40 37 35 33 29 29 31 33 38 44 49 59 66 69 63 48 43 41 39 41 38 39
39 36 33 29 30 32 32 35 42 48 55 61 61 55 48 42 41 40 43 40 39 42
38 34 29 32 34 35 35 41 47 53 55 54 50 49 43 42 40 46 43 40 43 43
36 30 30 33 37 36 40 45 51 56 58 53 52 47 44 43 47 47 42 41 39 40
32 30 29 33 37 41 45 49 55 60 58 54 54 48 46 46 51 47 43 39 35 39

GFSNIL_prec_cthk_024.txt.gz
RH
74 67 62 54 50 48 44 38 33 31 31 36 40 43 47 47 47 53 53 55 56 59
68 60 59 54 51 44 40 37 38 33 35 40 47 48 47 47 47 60 57 58 61 64
63 61 57 53 45 40 40 37 34 32 32 35 40 46 47 46 53 61 56 60 68 73
62 58 55 49 43 42 40 39 35 32 29 35 42 44 43 47 57 56 58 68 72 74
59 59 52 48 45 48 46 42 35 33 37 37 39 41 52 55 53 60 67 72 76 82
59 55 48 50 54 51 47 39 34 39 40 38 40 36 43 60 63 69 74 78 81 66
57 52 47 51 50 50 44 37 40 41 38 37 39 45 50 59 68 74 76 72 50 41
56 49 51 50 50 48 39 39 41 40 41 42 43 46 53 65 69 69 57 42 42 41
51 53 53 52 47 40 39 41 39 40 43 43 45 48 56 61 58 48 40 41 40 45
56 55 54 49 40 41 42 37 38 42 43 47 50 50 53 49 44 40 42 42 46 44
58 56 51 45 40 43 42 40 40 47 46 49 49 49 46 44 40 42 44 49 46 43
58 55 46 40 40 43 44 41 42 49 52 54 54 48 47 44 42 47 51 49 45 42
57 49 42 40 40 40 44 41 44 51 55 58 57 49 49 45 45 49 53 47 43 41
50 44 41 39 39 42 42 44 48 49 58 60 56 52 51 48 46 54 51 46 43 43

GFSNIL_prec_cthk_027.txt.gz
RH
63 66 69 63 57 54 53 49 44 43 43 43 43 43 48 50 53 53 57 58 68 72
65 68 73 63 53 55 51 46 43 45 45 43 41 44 51 55 51 53 49 66 75 70
71 81 75 59 54 52 46 47 48 50 48 46 44 47 45 46 40 56 60 73 73 60
76 74 58 53 55 52 50 51 53 52 50 51 50 47 42 37 38 48 69 64 57 67
75 52 54 57 55 51 54 57 57 54 50 51 48 49 45 40 35 56 68 69 64 70
59 56 59 51 52 57 60 60 57 51 55 53 54 52 43 38 46 52 59 66 69 70
66 57 55 56 57 60 64 60 54 52 55 55 53 47 46 46 48 59 65 66 63 49
73 57 59 61 64 66 64 58 51 55 54 52 52 43 41 48 50 53 58 55 45 43
61 62 62 64 66 68 61 52 55 55 52 50 52 40 41 45 46 48 47 44 43 44
66 67 64 64 67 61 53 54 57 55 54 53 54 41 43 44 40 42 47 45 44 47
70 67 65 68 64 55 55 59 55 57 55 55 52 48 46 46 42 45 49 48 50 53
70 67 72 65 57 53 52 55 57 54 54 53 54 53 55 48 46 48 49 52 52 52
70 75 63 57 55 56 54 58 57 52 52 54 61 54 57 48 46 47 48 52 54 51
73 62 59 57 54 55 54 53 48 46 48 54 57 61 56 47 47 48 49 54 50 50

GFSNIL_prec_cthk_030.txt.gz
RH
53 57 59 62 66 73 67 66 52 42 47 41 41 41 45 50 50 49 52 53 54 60
56 57 60 66 73 66 66 50 45 47 43 47 47 47 46 47 50 47 47 53 60 66
59 61 64 68 75 74 52 44 46 46 52 53 51 54 56 50 43 43 40 49 59 66
63 71 67 68 68 64 53 48 48 55 58 55 56 56 53 50 40 38 40 38 45 61
67 77 67 63 76 75 63 57 57 64 63 57 56 57 55 46 49 46 48 46 53 61
73 73 82 67 74 69 59 56 69 67 61 58 61 61 54 54 52 51 47 49 49 50
74 88 71 74 75 60 57 67 70 67 60 62 65 64 56 56 51 44 47 48 47 47
82 72 89 76 71 64 66 66 70 65 65 69 64 62 54 58 49 43 44 42 44 42
87 86 79 74 69 60 69 80 72 70 66 64 64 58 56 55 46 40 37 37 42 40
80 86 78 77 67 75 80 72 64 67 69 69 64 58 56 53 47 40 38 42 42 40
84 85 86 71 76 77 68 68 72 72 66 64 67 56 53 51 51 47 42 46 42 42
89 88 76 77 74 70 71 67 65 68 69 63 63 54 48 52 55 51 43 44 43 43
91 81 83 75 77 73 68 70 71 70 69 66 56 52 53 56 56 48 46 46 46 45
92 83 82 81 72 70 68 70 67 64 55 52 51 50 56 60 55 49 51 47 44 51

GFSNIL_prec_cthk_033.txt.gz
RH
49 52 55 56 60 65 66 66 63 67 60 45 42 43 42 44 48 51 53 52 53 55
55 58 59 61 62 74 76 65 61 56 64 63 54 47 48 53 54 52 54 52 53 55
61 62 64 65 73 69 71 76 67 53 57 56 52 48 57 59 57 55 54 49 45 46
65 66 69 73 72 78 80 86 64 56 59 63 58 55 60 58 56 54 50 52 51 51
69 71 72 78 76 80 85 81 70 64 62 63 65 61 62 59 62 61 58 56 57 54
71 74 77 77 84 78 78 75 72 63 62 73 72 68 68 65 68 66 61 57 53 49
73 76 81 81 82 75 83 84 72 61 70 80 71 68 73 67 71 68 62 54 52 42
73 80 83 79 78 86 84 79 65 77 78 64 74 78 71 69 76 71 59 49 43 39
77 84 84 81 91 91 82 76 83 74 78 80 78 75 75 74 74 65 53 43 37 38
85 88 88 90 94 87 81 84 79 85 83 77 79 82 72 73 66 56 52 50 42 41
89 92 93 95 90 86 86 84 84 80 78 78 76 73 69 59 57 55 54 56 45 44
92 93 92 91 88 90 86 82 78 76 75 74 71 63 57 54 55 59 60 59 46 47
94 94 95 93 88 85 82 76 71 71 69 58 55 53 51 50 55 60 64 55 49 51
95 92 89 88 84 77 70 64 59 52 49 50 46 49 49 53 57 62 60 54 55 54

GFSNIL_prec_cthk_036.txt.gz
RH
58 63 68 70 71 71 72 69 78 83 86 73 66 65 56 44 50 54 54 54 57 57
63 67 71 77 80 78 77 78 85 77 74 70 74 70 60 56 56 56 58 58 58 56
69 77 80 78 77 78 82 74 84 76 81 73 64 61 60 63 63 60 61 58 57 52
74 81 85 83 76 72 78 75 84 78 82 73 63 62 67 74 65 63 66 72 66 62
70 77 80 72 75 72 75 81 76 79 76 72 67 66 73 76 69 75 77 76 76 67
71 72 70 70 66 69 82 72 76 76 78 74 71 75 75 73 79 77 81 84 73 68
77 85 80 78 79 79 77 78 82 81 75 74 79 82 76 81 78 86 86 80 75 69
90 87 80 76 97 83 92 84 90 82 80 83 83 84 85 86 87 85 79 81 69 52
89 87 90 82 89 88 91 96 93 89 88 84 84 83 84 83 84 84 73 65 55 52
83 77 78 89 90 92 94 95 92 91 86 81 80 77 72 75 68 62 59 54 53 55
83 85 87 91 90 90 94 92 89 83 78 71 63 63 62 56 56 55 53 55 57 60
86 83 91 97 96 93 89 83 71 64 60 58 52 52 50 48 50 52 54 56 60 64
88 96 96 94 84 79 68 60 53 49 49 41 36 38 42 47 52 56 58 58 64 61
92 89 82 73 64 53 47 47 39 32 31 32 34 39 42 45 48 54 60 63 65 60

GFSNIL_prec_cthk_039.txt.gz
RH
58 58 62 73 74 79 81 79 77 80 83 89 85 80 78 74 74 65 51 58 64 70
57 64 70 77 81 79 83 85 82 88 86 85 86 83 79 73 66 64 66 68 71 75
67 63 70 79 83 86 87 84 88 90 79 86 81 82 77 68 66 73 75 74 74 69
64 73 77 80 77 80 77 86 81 77 78 83 81 81 80 75 77 82 75 73 76 72
76 82 81 80 77 81 82 86 84 90 92 90 87 84 80 84 86 80 76 76 79 81
80 86 87 88 91 89 84 81 84 93 92 91 90 84 88 90 82 78 80 82 83 82
87 87 85 89 92 86 87 96 94 92 94 90 86 88 87 83 80 81 80 78 79 71
86 85 90 91 85 92 84 88 89 93 94 93 93 93 85 82 77 64 63 67 62 53
85 90 93 87 82 83 89 92 94 96 95 97 94 85 66 57 54 49 50 50 47 50
85 88 82 82 83 91 91 96 98 97 93 84 64 56 46 38 32 35 40 47 49 51
76 76 80 86 90 89 89 92 92 85 63 54 41 29 23 24 31 38 41 46 49 53
78 84 90 98 97 93 94 82 63 52 40 29 21 20 22 28 34 39 41 46 51 53
87 97 98 92 92 83 67 55 42 31 24 21 21 24 27 32 36 38 41 47 49 52
90 92 91 86 76 62 47 37 27 22 21 22 25 29 33 39 40 41 44 48 53 55

GFSNIL_prec_cthk_045.txt.gz
RH
58 57 61 65 72 79 87 89 93 90 90 91 92 86 86 92 86 83 83 80 76 75
57 59 58 71 82 84 91 92 94 91 93 92 90 93 89 91 87 85 88 83 81 76
58 61 64 73 81 86 91 94 95 91 93 91 94 95 95 92 93 94 88 86 83 78
63 69 74 82 88 90 92 91 95 97 96 95 95 96 91 92 97 94 92 86 82 74
74 80 84 84 87 91 91 94 97 96 93 97 95 96 92 94 98 94 91 86 77 73
73 73 80 86 89 91 91 90 85 86 88 98 95 95 92 96 95 92 90 86 76 59
51 64 81 85 82 82 82 82 88 88 90 92 92 95 96 98 97 94 86 80 55 36
59 57 65 64 60 65 71 74 79 88 81 86 92 95 98 97 94 90 77 53 36 27
51 53 53 55 58 66 72 79 82 84 83 89 95 97 97 95 86 73 50 35 23 23
49 53 56 59 61 67 69 82 80 90 96 98 98 97 92 82 68 51 29 19 21 26
53 56 58 62 66 71 79 86 88 93 96 95 89 80 70 54 38 26 22 21 24 29
52 55 59 67 73 79 85 88 91 89 84 75 64 53 41 33 27 24 23 25 29 34
56 61 65 70 74 79 81 81 76 68 59 48 40 33 28 26 25 25 26 31 37 44
65 69 70 72 74 72 65 59 51 42 36 34 29 25 24 25 29 32 35 39 42 47

GFSNIL_prec_cthk_048.txt.gz
RH
78 80 74 70 67 64 72 79 83 88 91 94 96 95 90 90 91 95 93 88 86 88
80 75 68 69 70 71 79 86 92 94 95 97 97 93 95 91 95 96 93 90 91 97
58 55 61 65 69 77 83 86 91 94 96 93 94 92 88 94 95 97 95 97 95 95
46 54 62 68 75 79 81 87 91 96 95 96 95 91 91 89 98 97 98 95 92 94
55 64 72 77 73 78 88 93 95 97 94 95 90 86 89 95 98 98 92 92 97 97
57 57 58 56 60 80 88 94 91 91 93 89 78 86 89 88 91 92 94 96 96 95
50 50 52 54 57 61 66 78 78 71 72 72 84 90 92 87 89 94 97 98 97 93
49 52 56 57 56 57 59 60 62 65 72 84 92 88 89 92 97 98 97 96 91 75
40 42 46 50 52 53 55 57 61 67 72 74 81 86 91 95 96 96 89 73 60 47
38 41 45 49 53 55 56 60 67 70 75 83 88 92 95 94 80 69 57 48 42 36
41 44 46 49 53 55 58 65 71 74 79 84 84 78 68 58 49 44 40 36 34 31
41 44 47 51 57 62 66 69 70 73 74 70 63 52 46 42 37 35 32 32 32 32
48 50 56 61 63 66 66 66 65 60 53 46 39 36 32 31 31 31 31 32 33 35
52 57 60 62 62 60 56 51 44 40 37 34 30 29 28 31 33 35 36 37 38 41

GFSNIL_prec_cthk_051.txt.gz
RH
84 88 83 80 79 77 76 74 75 74 83 90 90 92 94 97 95 96 90 89 88 95
98 75 73 73 71 72 72 82 80 87 93 91 91 93 96 97 95 93 92 87 91 94
79 80 74 67 60 64 71 78 84 86 85 88 94 96 94 92 94 90 91 90 92 95
72 66 59 54 61 68 72 77 77 74 87 90 94 91 93 97 93 96 85 88 88 93
59 50 48 55 58 62 64 62 62 71 87 98 98 90 98 93 95 83 77 98 96 96
51 56 56 59 59 57 58 59 60 66 70 73 81 76 75 72 71 85 89 96 97 90
55 59 63 61 56 52 59 57 60 61 63 65 66 67 70 72 77 84 90 93 92 94
63 61 59 53 53 54 55 56 59 62 63 61 64 66 69 72 76 77 84 89 91 86
60 57 46 42 42 44 47 48 51 53 56 60 62 66 70 73 77 83 84 77 69 62
44 41 38 37 41 45 48 48 49 52 57 64 66 69 71 72 72 66 60 50 43 39
38 35 36 39 42 43 45 48 53 58 61 63 64 62 57 52 47 41 38 34 33 38
34 36 38 41 43 46 50 55 57 58 57 56 57 49 44 39 36 33 33 34 36 41
38 41 43 46 50 52 54 56 55 52 50 46 43 44 41 36 33 33 36 37 36 36
43 45 49 51 54 55 51 49 46 41 43 44 44 46 44 41 38 35 30 27 28 27

GFSNIL_prec_cthk_054.txt.gz
RH
70 78 88 89 74 81 79 77 74 77 83 84 86 90 94 90 92 96 98 98 98 96
74 72 74 80 89 80 79 79 66 82 84 85 87 82 88 92 92 93 93 92 93 97
71 71 73 82 79 77 75 72 82 78 79 78 76 69 80 90 99 98 98 93 97 97
75 71 74 73 73 66 70 70 67 64 63 64 62 63 71 82 87 88 98 98 85 78
81 80 74 76 70 66 60 60 63 60 55 57 59 63 66 64 78 69 79 74 73 75
80 77 71 62 61 59 62 63 61 57 55 58 61 62 63 62 64 64 67 70 73 76
68 62 62 58 60 64 63 61 56 55 57 59 61 60 60 61 61 63 67 73 78 79
56 54 58 64 67 64 61 56 51 51 53 53 55 56 56 59 66 70 74 75 76 78
63 66 69 66 64 53 47 44 44 45 47 48 50 55 59 63 67 70 71 69 61 54
68 64 59 54 46 42 39 40 42 44 46 50 55 59 62 64 64 61 54 47 44 42
58 55 50 46 41 38 39 42 45 48 51 55 56 56 54 50 45 41 41 42 41 43
53 50 44 39 38 40 43 45 48 52 52 51 50 48 45 41 39 38 37 36 36 35
46 41 38 39 43 46 47 49 52 52 50 45 44 44 44 42 40 38 36 33 30 27
39 38 41 44 47 48 49 50 49 44 43 45 45 44 44 44 39 34 30 27 25 24

GFSNIL_prec_cthk_057.txt.gz
RH
72 73 81 75 81 78 76 77 78 87 85 91 90 88 91 94 89 73 85 89 91 93
69 71 75 73 77 79 82 84 81 91 84 89 87 82 76 70 73 67 72 87 94 97
70 71 77 77 74 85 77 87 79 79 87 75 67 66 65 62 66 66 71 76 73 76
75 81 90 87 82 78 72 86 83 81 64 65 62 59 58 59 62 64 65 62 71 81
90 90 97 94 84 77 77 71 62 62 63 59 58 54 55 58 58 64 61 69 67 69
81 71 83 95 91 73 70 61 63 65 63 62 55 54 56 52 64 68 65 66 68 69
62 68 75 73 72 63 60 64 70 71 64 58 52 54 55 58 58 62 65 65 71 73
64 65 61 57 56 63 72 75 73 63 55 49 50 51 54 56 59 62 64 69 68 68
50 49 54 60 69 76 72 69 58 50 45 46 48 49 50 54 59 61 63 64 57 48
50 59 65 67 66 65 58 52 45 41 40 42 45 47 50 54 57 58 52 46 41 41
63 65 62 58 57 52 49 43 37 37 41 44 46 49 50 49 44 40 39 39 41 42
60 52 54 52 50 47 40 37 38 40 42 44 46 46 43 40 40 39 41 42 42 40
53 51 47 49 47 41 37 39 42 43 44 44 45 44 44 46 47 47 45 42 37 34
45 46 49 45 42 40 41 45 47 45 46 46 48 48 50 52 51 46 40 37 35 34

GFSNIL_prec_cthk_060.txt.gz
RH
61 66 75 77 79 78 73 74 77 79 78 84 95 95 94 86 88 83 74 74 78 78
58 63 75 76 76 83 80 81 81 80 81 86 87 96 86 83 76 69 64 77 69 64
60 62 69 72 86 84 86 87 78 82 91 92 86 86 77 74 66 61 58 64 63 68
69 71 73 83 88 91 95 91 79 85 91 85 72 69 70 64 58 61 58 66 55 71
93 91 91 92 85 90 98 91 85 78 77 67 66 69 66 62 57 57 59 57 57 70
79 81 79 78 85 84 73 75 78 73 70 68 70 67 62 57 57 59 52 59 62 63
74 75 70 73 86 74 66 66 68 72 76 75 71 63 61 51 52 52 57 61 56 65
68 62 65 72 70 63 69 72 72 76 77 70 65 61 51 49 50 55 59 61 62 64
54 54 64 61 61 64 71 74 72 74 72 68 58 50 50 51 54 56 58 60 63 63
55 53 55 59 64 73 73 74 75 70 60 54 47 46 49 53 55 57 58 60 58 49
52 52 54 58 68 76 70 65 60 56 54 47 44 46 50 53 54 54 50 47 44 45
55 55 58 67 71 66 57 52 52 53 46 42 44 48 51 49 43 41 44 45 47 49
58 64 68 65 58 50 49 50 52 48 43 43 46 48 46 43 44 48 51 53 53 49
57 60 58 53 48 47 49 51 49 43 45 47 49 48 47 49 54 58 57 52 49 46

GFSNIL_prec_cthk_063.txt.gz
RH
47 53 59 66 64 63 59 54 55 55 58 65 73 77 81 92 97 90 92 89 77 70
49 51 57 68 71 71 74 77 79 77 75 78 83 87 94 95 92 85 84 79 66 73
57 62 66 67 75 80 83 89 93 90 86 86 84 88 94 89 88 81 75 66 62 56
58 66 72 72 74 77 91 90 94 92 87 82 90 90 91 85 83 73 68 64 58 57
81 82 87 87 86 85 91 90 94 85 85 88 91 87 76 77 74 71 66 60 60 55
89 94 89 84 90 80 87 88 84 83 80 87 82 85 77 72 71 69 62 60 59 60
78 74 73 78 73 81 88 81 77 74 77 74 78 82 78 70 68 66 62 52 52 51
59 64 66 63 65 69 81 75 70 74 73 75 82 80 75 71 69 61 57 50 54 50
53 57 58 60 63 67 68 70 72 74 73 75 81 76 71 71 62 52 51 52 54 57
48 52 58 65 67 65 64 68 69 76 80 80 78 73 72 63 53 52 52 55 58 61
56 57 63 66 62 60 61 63 74 81 81 80 76 65 59 53 49 51 55 58 61 63
56 61 62 62 63 66 72 80 81 79 79 67 62 60 60 53 51 55 57 60 59 53
57 57 60 66 70 77 78 81 77 77 67 64 61 61 59 53 54 55 51 48 48 52
50 56 67 72 70 72 74 76 72 64 62 63 65 64 60 55 52 49 48 50 52 54

GFSNIL_prec_cthk_066.txt.gz
RH
48 54 58 61 66 62 55 54 57 59 59 60 62 58 55 61 69 81 91 94 92 92
52 54 55 61 67 68 67 64 60 58 57 56 54 54 58 68 84 96 90 90 87 86
50 54 56 57 58 63 65 67 66 63 64 65 67 71 78 81 84 94 88 87 81 76
60 57 59 60 62 65 68 73 70 75 84 87 90 91 90 87 90 93 93 93 82 84
72 72 69 65 68 72 75 76 74 86 94 96 97 94 96 96 89 86 89 84 81 80
68 71 71 76 71 80 78 81 82 83 89 94 98 91 87 90 91 89 83 77 73 72
49 56 58 73 67 67 74 80 81 82 88 90 92 86 80 88 86 86 79 78 75 70
48 50 55 65 70 70 71 71 79 76 80 83 81 74 75 82 88 87 82 76 74 67
39 44 49 57 64 74 75 78 79 81 87 87 80 84 85 82 92 91 79 74 71 61
36 36 47 56 62 67 75 82 85 80 83 86 88 84 84 88 90 88 80 75 70 57
38 40 45 56 64 70 78 79 78 79 77 79 79 85 89 91 91 81 73 68 65 62
42 44 51 54 58 62 66 71 75 76 79 80 84 88 87 87 74 67 64 64 67 64
48 50 49 53 52 56 62 68 73 73 75 78 83 84 87 75 66 62 66 71 70 67
59 49 47 49 53 55 58 65 70 73 73 75 78 81 74 64 64 69 73 71 67 63

GFSNIL_prec_cthk_069.txt.gz
RH
47 51 54 57 61 58 63 68 71 73 77 80 79 80 78 74 72 70 65 63 65 75
45 48 53 55 60 66 65 59 60 65 66 68 70 71 69 66 63 58 58 63 70 80
46 49 51 54 57 61 67 64 61 62 61 61 62 61 61 60 58 57 65 74 85 85
62 57 56 59 62 64 68 73 72 71 67 66 66 66 66 64 61 67 82 86 88 94
67 67 67 65 63 64 64 68 70 73 76 71 64 66 73 74 81 90 89 99 97 96
58 62 64 65 65 60 70 66 69 74 82 81 82 87 94 91 97 98 98 97 92 90
39 46 53 58 58 55 68 68 67 71 81 85 84 88 90 94 97 97 98 95 95 94
31 35 44 52 55 58 61 67 69 69 78 83 78 82 91 97 97 91 91 93 94 91
33 31 32 38 42 48 53 61 68 72 74 73 78 86 89 89 88 87 89 88 87 88
36 33 34 34 35 39 48 58 63 72 79 83 85 86 88 90 91 87 86 84 85 88
48 44 36 34 36 41 49 56 61 68 74 78 79 84 86 86 85 83 86 88 90 89
52 50 44 40 39 43 54 59 61 65 68 69 73 73 73 77 81 86 86 90 87 98
54 58 53 50 50 50 51 55 57 60 63 65 68 71 73 78 81 83 85 84 94 89
59 61 61 65 66 58 53 54 54 56 60 65 69 74 77 80 81 81 79 92 94 69

GFSNIL_prec_cthk_072.txt.gz
RH
47 49 52 54 60 63 68 71 73 77 81 81 82 84 90 93 83 88 76 72 78 71
43 47 51 51 54 57 59 60 62 65 68 73 77 80 86 82 79 79 76 75 75 75
44 43 46 49 51 54 56 58 58 57 60 67 73 76 77 75 75 75 74 71 68 64
44 48 50 52 56 60 63 67 68 69 70 70 70 69 70 70 71 73 68 67 62 62
51 48 48 57 58 58 60 67 71 75 75 75 74 75 75 71 70 74 76 76 71 66
49 50 47 48 53 59 62 64 64 70 68 69 74 77 80 80 78 76 77 79 82 89
46 46 47 48 47 48 53 52 53 55 64 66 63 68 80 81 82 79 88 90 94 95
40 41 43 46 47 49 51 51 53 54 59 65 66 68 77 84 86 84 91 98 97 98
41 41 42 44 48 53 53 56 58 55 60 67 70 75 77 80 80 85 92 93 90 88
46 45 44 43 42 40 43 48 51 55 63 65 70 73 84 86 88 91 91 90 92 90
48 51 51 51 51 52 41 42 47 53 61 66 68 73 80 87 90 93 92 93 93 94
57 54 55 54 54 54 53 45 45 53 63 69 70 70 76 82 84 85 86 87 87 86
58 60 59 54 52 55 58 57 55 51 56 62 64 66 69 73 75 78 81 81 84 84
56 59 60 61 61 59 64 67 70 70 61 57 59 61 63 68 71 74 78 81 83 86

GFSNIL_prec_cthk_075.txt.gz
RH
43 45 47 48 56 63 67 75 78 85 88 87 92 94 92 92 92 87 90 92 88 84
39 42 43 45 47 51 57 59 63 64 68 72 75 84 87 85 83 84 86 83 89 88
37 41 47 48 48 51 52 52 56 56 59 61 66 76 80 80 79 79 81 82 90 81
37 39 41 47 54 56 59 60 63 64 66 66 66 68 69 72 77 79 81 86 85 80
40 42 42 45 47 54 59 61 65 68 66 67 66 68 71 71 73 75 77 78 76 73
44 46 48 49 49 49 56 57 62 65 64 61 65 68 68 69 70 72 76 77 77 76
50 49 50 53 54 51 51 52 57 61 61 61 62 65 68 72 71 73 81 82 84 83
52 54 52 50 53 54 52 48 48 51 53 57 59 59 64 69 73 76 80 88 86 86
54 53 49 47 48 50 53 54 53 52 51 52 53 54 59 66 72 75 76 77 78 80
55 53 52 52 51 50 50 51 50 52 51 49 53 53 54 67 74 74 80 84 82 85
54 52 53 53 53 53 53 51 50 49 51 47 49 54 62 74 75 73 76 84 91 95
57 54 54 55 57 57 60 58 57 59 59 57 50 54 64 75 81 82 84 85 86 89
64 62 61 61 64 61 60 58 57 58 62 66 63 58 57 68 75 79 81 83 83 86
67 69 70 70 70 67 64 61 63 64 67 74 75 71 72 69 67 72 73 74 76 76

GFSNIL_prec_cthk_078.txt.gz
RH
43 45 46 47 52 57 63 65 70 75 80 83 82 84 84 86 88 88 90 90 89 92
41 44 45 46 49 51 56 60 63 64 68 69 73 79 84 89 88 86 87 88 89 86
35 39 45 50 53 53 53 58 59 57 58 58 56 59 65 70 77 80 82 81 83 85
34 36 39 43 48 50 58 59 60 62 63 66 66 64 66 64 66 75 79 81 81 82
37 36 36 41 42 45 47 52 59 62 63 65 67 68 67 68 69 70 74 77 79 77
38 40 42 44 46 47 49 49 49 51 56 60 62 61 60 63 66 70 73 76 80 82
42 43 45 48 50 51 53 54 51 49 49 54 58 58 58 59 61 66 67 72 77 78
52 55 53 52 53 54 54 53 57 56 50 49 51 53 55 57 58 61 68 73 77 80
58 59 57 55 56 56 51 48 53 52 54 55 51 49 52 55 59 63 66 69 74 80
62 61 60 58 60 58 54 54 52 55 57 55 53 53 56 54 60 64 63 64 69 75
64 62 61 61 59 58 58 58 59 59 58 58 57 56 55 61 62 62 65 67 69 76
70 71 71 67 64 64 65 63 60 63 63 64 67 64 62 66 65 61 62 69 72 76
67 66 69 70 71 70 69 69 68 68 68 72 72 70 68 68 67 71 70 65 66 69
67 71 70 68 73 76 77 72 71 71 73 74 76 75 78 81 82 82 81 80 79 82

GFSNIL_prec_cthk_081.txt.gz
RH
39 41 43 48 51 53 57 59 65 72 80 82 85 84 84 86 81 81 88 92 94 90
37 39 42 45 48 50 53 53 56 62 68 73 73 75 82 84 83 85 89 91 95 90
34 37 41 44 48 54 57 59 56 54 54 59 61 64 67 69 75 78 83 87 87 87
35 36 37 40 44 48 51 58 66 67 64 60 58 63 65 64 63 61 65 70 76 80
35 36 38 38 40 44 47 49 51 57 66 68 66 66 67 67 64 65 66 68 75 78
38 39 38 40 43 44 46 49 52 52 53 55 59 65 65 66 66 65 65 69 69 70
45 43 44 44 45 47 48 51 52 54 55 53 52 51 58 62 62 61 60 62 65 69
55 49 50 52 52 53 52 53 54 56 53 54 54 50 49 52 55 58 58 59 58 59
60 60 59 58 59 62 59 56 59 58 54 53 54 54 55 56 57 56 56 55 55 58
68 64 61 65 68 68 66 62 62 63 62 59 58 57 58 60 61 63 61 62 61 56
77 75 69 67 65 64 67 67 66 67 66 66 63 64 66 67 68 68 66 62 62 63
66 76 79 77 72 69 71 71 69 69 70 67 67 67 71 75 74 74 75 70 65 67
57 61 66 75 80 77 80 75 75 75 72 71 69 73 71 76 81 80 82 83 80 83
61 59 59 63 71 78 79 79 81 81 81 82 79 77 72 78 85 84 84 85 86 88

GFSNIL_prec_cthk_084.txt.gz
RH
40 43 45 46 49 51 57 68 77 77 82 86 88 89 91 92 90 87 83 81 83 84
35 39 41 46 48 50 53 57 64 72 74 74 76 80 85 82 83 82 84 86 84 84
34 37 41 45 49 52 55 57 58 58 62 64 65 66 66 67 75 85 87 89 89 90
32 36 38 41 45 47 52 56 61 64 61 57 59 61 62 66 67 67 70 76 82 85
31 34 37 39 40 44 48 50 53 56 59 61 64 65 66 67 69 69 65 68 68 68
47 36 36 39 42 43 47 52 55 57 60 61 60 57 60 64 68 70 67 66 67 70
58 56 46 42 43 45 48 49 52 54 56 59 64 63 63 62 61 64 66 65 61 60
67 64 64 56 51 49 48 49 51 55 58 60 61 59 61 64 64 63 65 65 63 62
78 74 71 68 60 59 58 58 58 57 56 58 60 60 58 62 65 66 67 66 67 65
82 80 76 76 75 72 68 68 67 67 67 61 61 61 62 63 65 67 66 66 65 65
71 78 82 82 78 74 76 74 73 73 71 71 67 71 72 72 74 71 68 68 69 68
60 65 71 77 78 80 83 80 78 76 78 77 75 74 75 77 77 74 74 73 75 77
49 55 57 61 65 66 71 74 79 82 83 84 84 83 80 81 83 80 77 77 76 76
34 35 38 46 52 56 59 64 70 77 81 83 88 88 87 89 91 88 86 79 81 80

GFSNIL_prec_cthk_087.txt.gz
RH
33 34 37 39 42 46 53 62 71 78 85 92 90 90 92 95 91 91 89 93 91 89
32 33 35 39 42 46 51 57 64 70 78 82 88 91 94 94 91 95 94 93 90 90
31 33 35 38 41 46 50 53 58 65 71 73 77 81 83 84 88 91 93 90 93 93
29 34 36 38 42 45 49 55 58 60 62 62 63 65 65 67 69 70 71 78 85 87
38 35 36 38 40 44 48 49 52 55 60 63 68 69 71 70 68 68 70 74 71 68
54 48 43 40 41 44 46 49 52 54 56 58 59 59 58 60 62 64 69 71 70 71
67 68 64 55 48 47 48 47 51 56 57 59 62 63 63 62 59 57 56 61 64 69
78 76 77 72 67 59 55 54 55 56 56 58 59 59 62 67 68 67 65 62 60 60
82 82 81 83 81 78 70 65 65 62 64 63 60 60 62 65 67 67 66 65 66 66
81 81 81 80 82 83 84 82 75 74 76 76 74 72 70 71 75 72 68 67 67 68
72 70 74 77 79 83 85 86 85 83 83 84 81 79 83 86 88 88 83 80 76 73
56 60 61 65 67 68 74 81 85 85 85 87 84 86 88 90 94 92 91 89 87 84
38 37 38 44 47 49 52 61 71 75 80 82 82 84 85 88 89 89 89 90 90 88
35 34 32 28 28 31 34 38 44 52 59 65 68 71 75 83 90 94 94 92 92 92

GFSNIL_prec_cthk_090.txt.gz
RH
29 34 37 42 45 46 47 53 62 72 83 85 92 93 85 88 87 88 88 88 88 88
29 33 35 39 43 44 46 50 59 65 71 82 88 88 86 85 87 90 87 87 91 91
30 32 35 38 40 44 47 51 54 62 66 71 76 79 81 83 85 86 87 91 91 90
29 32 36 39 44 47 51 52 54 58 61 63 66 70 76 77 79 80 80 79 76 78
32 31 36 37 41 44 47 52 55 57 58 61 66 68 70 70 69 71 72 75 76 76
49 44 41 41 40 42 45 47 49 52 55 58 61 64 65 65 65 66 67 69 69 71
64 65 62 55 51 47 46 47 49 49 50 54 57 59 62 65 67 67 65 65 64 64
77 75 78 77 73 68 60 57 58 54 54 55 56 54 55 58 61 65 67 69 70 69
83 82 83 83 82 80 81 80 71 66 64 60 59 62 65 67 68 69 68 68 69 69
87 86 85 85 84 83 82 81 85 83 80 76 75 74 76 79 83 81 80 80 78 76
77 77 79 79 79 80 83 86 86 85 86 85 84 84 82 83 85 88 89 89 88 88
64 65 65 66 69 70 71 73 78 78 79 82 85 84 84 84 89 92 90 91 93 94
52 50 49 47 45 44 46 49 52 57 59 61 64 69 74 79 85 87 88 91 93 95
44 41 37 35 35 34 31 30 30 32 35 35 37 40 44 50 57 66 73 76 78 79

GFSNIL_prec_cthk_093.txt.gz
RH
24 30 35 39 45 51 54 57 65 72 82 89 93 92 96 94 87 86 86 81 81 80
25 30 34 39 42 45 47 51 54 61 69 76 81 83 89 87 83 82 79 77 79 82
24 29 34 37 40 43 46 49 52 60 67 76 80 81 83 89 80 81 81 82 83 84
24 28 35 36 39 43 47 49 51 54 61 67 69 72 75 75 69 70 75 79 84 83
27 28 35 36 38 41 46 50 52 55 56 58 62 64 64 65 62 66 67 69 69 71
42 32 34 36 38 40 42 44 48 51 53 57 60 63 64 65 66 68 71 73 74 76
58 53 46 46 45 42 42 44 45 48 49 51 53 56 59 61 64 65 67 69 70 69
77 71 68 62 61 59 55 53 54 53 50 51 52 53 56 60 62 64 66 67 68 69
93 86 81 80 85 84 82 82 81 75 72 67 61 62 64 64 64 64 64 64 66 66
91 92 88 87 87 87 86 85 83 84 85 83 83 77 76 78 76 77 79 80 80 80
97 97 96 95 92 90 87 85 83 82 85 84 84 87 86 85 86 86 87 86 87 88
84 82 86 88 86 83 81 81 80 80 80 81 80 80 82 82 85 86 90 93 93 89
69 64 62 60 60 61 62 63 61 60 62 65 67 68 68 68 71 74 77 80 75 73
51 49 49 47 46 43 42 41 42 41 39 38 36 34 31 29 28 31 37 41 45 51

GFSNIL_prec_cthk_096.txt.gz
RH
47 28 33 35 38 45 55 60 68 84 91 92 94 96 95 94 95 93 93 94 86 85
47 30 33 35 39 41 46 49 59 64 70 80 80 88 90 91 95 92 93 88 84 80
47 33 33 35 36 39 43 47 53 58 66 69 78 88 88 86 90 90 90 85 81 82
49 35 33 36 35 39 42 44 48 52 60 65 68 75 80 83 86 86 84 78 78 78
54 38 33 38 38 39 43 45 48 50 54 62 66 72 74 73 75 78 73 71 69 70
62 42 34 39 41 40 43 46 49 51 52 56 60 62 63 64 66 67 65 63 62 64
70 60 42 41 41 42 45 48 49 52 54 56 57 60 64 66 67 68 67 66 65 68
81 77 62 49 49 49 49 51 52 52 54 56 59 62 61 61 62 62 63 63 64 65
87 88 82 70 57 54 53 55 58 59 60 67 67 66 64 61 61 63 63 63 64 66
94 94 96 91 85 77 74 75 79 84 84 79 78 76 75 74 74 75 76 78 79 79
99 96 97 98 96 96 94 93 93 93 91 89 88 87 89 90 89 91 93 90 86 88
96 97 98 99 96 95 96 97 95 93 93 90 87 86 88 92 93 90 89 88 86 86
89 88 93 96 94 97 96 95 95 91 87 83 82 79 76 76 76 76 77 76 78 75
80 81 77 74 70 71 70 69 68 68 66 61 55 52 49 47 46 46 46 42 40 38

GFSNIL_prec_cthk_099.txt.gz
RH
61 58 53 36 33 35 41 50 58 67 84 96 95 97 98 97 96 95 88 88 92 90
61 60 54 38 34 36 41 45 52 57 67 83 91 95 95 95 97 95 94 94 94 92
64 63 56 40 36 37 42 42 46 52 60 68 80 85 88 90 92 91 92 93 96 92
68 66 58 44 39 40 42 42 42 50 56 61 68 78 80 97 96 95 91 90 94 90
72 70 60 48 42 41 42 44 42 49 54 60 65 70 77 81 85 88 87 86 87 83
76 72 62 55 42 40 41 44 46 48 51 57 63 68 76 76 79 80 77 77 79 73
79 74 65 59 47 45 45 46 48 50 51 54 58 62 64 68 69 68 68 67 67 68
84 80 69 66 58 47 49 50 51 53 55 57 57 55 57 60 63 64 66 67 69 70
84 81 76 73 68 61 49 52 53 53 57 57 56 58 59 63 65 66 67 69 72 72
87 89 88 84 83 76 64 52 55 58 58 61 59 60 66 74 77 80 78 74 72 75
93 94 96 93 92 89 84 76 67 60 62 64 70 84 86 84 84 82 83 83 84 85
99 96 97 97 96 97 95 96 92 86 84 80 90 96 96 96 95 94 94 94 95 94
97 98 98 98 95 98 96 99 99 95 97 96 97 99 97 99 96 94 91 94 93 92
96 98 97 93 93 98 95 96 98 97 96 96 96 95 91 86 82 80 77 73 69 67

GFSNIL_prec_cthk_102.txt.gz
RH
49 50 52 54 53 48 29 30 37 47 53 69 89 96 98 99 99 98 99 97 96 93
52 53 54 57 54 49 36 31 37 47 51 60 88 92 97 99 99 96 95 94 92 91
55 60 57 59 57 50 42 33 38 45 51 56 64 86 91 95 93 93 94 96 96 93
61 64 61 63 59 53 45 36 37 43 50 57 60 68 83 87 91 89 94 95 94 96
64 66 66 67 61 56 49 38 37 40 48 56 61 66 76 81 94 94 97 97 96 93
71 70 73 74 64 61 59 45 39 41 47 57 61 66 67 73 76 88 90 92 89 96
75 76 81 82 70 66 62 55 43 44 50 56 59 65 72 70 76 78 80 85 78 81
76 80 83 83 75 65 66 62 50 48 51 52 55 58 63 67 70 73 74 75 74 74
81 83 85 85 79 74 73 69 61 52 52 51 52 56 60 63 65 67 71 72 70 71
84 86 89 88 80 81 82 80 77 68 57 56 55 57 60 63 66 67 66 67 70 71
94 94 93 91 90 86 86 84 83 79 73 61 61 62 64 65 66 67 69 74 79 79
99 97 97 95 94 95 92 91 90 85 80 79 70 68 67 67 71 73 77 82 82 83
95 95 97 97 97 99 98 98 99 98 89 86 86 80 82 83 85 86 95 96 93 94
96 96 96 97 97 99 98 96 98 97 98 98 99 93 92 95 93 94 94 98 98 99

GFSNIL_prec_cthk_105.txt.gz
RH
45 49 44 43 44 48 54 53 44 35 38 41 45 57 91 97 99 98 98 97 98 98
49 52 52 46 49 51 57 54 45 40 38 41 43 61 89 94 98 99 97 99 99 98
56 56 65 52 52 54 61 55 49 45 39 40 41 55 74 86 94 99 98 98 98 98
61 61 70 54 57 58 62 55 52 50 41 40 40 48 63 79 95 98 98 97 98 97
65 68 66 55 61 63 66 57 59 55 45 42 41 47 57 73 92 95 96 95 95 96
55 66 62 58 70 69 70 63 63 60 52 44 43 50 55 62 77 89 92 93 95 97
63 66 75 74 78 75 78 68 67 64 60 49 47 52 60 67 70 76 85 92 96 96
70 76 81 80 80 82 82 74 71 67 64 57 51 53 54 58 71 69 77 84 89 92
75 79 81 82 81 85 85 80 78 76 73 65 53 52 55 59 71 69 80 86 81 85
78 82 84 84 91 89 90 86 82 79 78 75 66 59 58 61 62 70 68 71 73 80
84 88 87 91 97 95 92 91 90 85 86 84 80 75 65 64 64 65 65 65 70 68
88 90 90 92 98 99 97 98 96 94 91 90 87 88 81 75 71 70 70 72 73 75
96 99 91 96 96 99 98 96 95 97 94 95 98 94 92 90 88 83 80 80 81 79
98 97 98 97 98 96 100 97 96 95 96 96 99 99 98 96 91 90 88 85 88 91

GFSNIL_prec_cthk_108.txt.gz
RH
50 57 53 50 48 44 41 41 49 55 56 46 40 44 48 50 69 96 99 99 99 97
47 51 55 55 56 50 47 46 50 56 56 49 42 45 46 51 65 88 98 96 96 97
51 57 64 58 61 53 51 51 53 59 56 50 46 45 44 51 59 79 97 99 98 97
51 59 62 66 64 60 61 55 56 62 53 54 49 45 47 52 58 69 86 96 99 98
64 66 73 73 70 74 76 63 60 65 54 59 56 47 50 52 58 68 89 97 98 97
69 69 80 82 77 80 84 67 65 67 58 65 63 51 52 54 58 66 80 95 98 97
66 65 81 80 80 82 85 66 68 69 63 69 69 59 56 56 57 62 72 82 94 96
78 75 71 85 80 89 75 74 71 72 67 72 74 68 61 61 60 67 67 77 84 92
91 79 77 68 71 73 79 83 74 74 68 74 76 73 68 66 62 65 64 74 78 83
90 94 83 82 98 95 98 93 84 77 79 76 77 75 75 71 65 63 62 69 73 80
87 87 88 80 80 97 95 83 87 84 86 86 84 80 78 77 76 73 67 69 66 72
96 94 90 82 77 93 82 99 93 89 92 91 87 86 83 82 84 82 81 73 75 68
94 97 95 98 92 97 92 99 93 99 91 96 93 94 92 91 91 89 86 84 84 78
92 97 97 97 94 98 99 99 94 98 98 97 92 95 94 98 96 94 93 92 89 90

GFSNIL_prec_cthk_111.txt.gz
RH
58 59 58 58 67 63 57 54 52 45 43 46 55 58 55 43 41 46 49 64 85 95
58 58 58 57 62 66 62 59 58 52 46 48 57 58 53 45 42 45 52 65 79 96
56 57 54 59 57 58 63 63 66 65 50 52 58 56 52 49 42 45 54 61 71 88
54 53 60 62 61 61 67 70 74 73 60 54 61 56 53 53 42 45 54 61 69 85
59 57 60 57 61 63 69 81 79 84 67 60 63 55 58 56 44 47 54 60 72 92
71 70 62 62 63 67 74 82 85 88 79 69 66 57 61 58 49 48 54 63 72 85
80 83 75 68 64 75 83 86 88 88 92 75 70 63 63 63 57 50 55 65 73 78
75 74 81 78 71 73 77 84 87 90 96 76 73 62 68 68 65 55 55 63 69 76
79 78 78 77 73 70 72 76 87 87 96 79 77 71 71 73 70 67 59 61 64 69
80 79 81 84 93 86 89 93 99 98 97 78 78 80 77 79 77 73 72 67 70 71
80 84 85 88 89 95 80 84 96 92 85 84 90 85 85 84 83 78 81 77 73 69
83 85 86 85 95 96 91 97 98 98 99 96 95 97 94 89 88 84 81 81 83 82
82 81 83 87 94 94 92 89 97 99 99 93 98 97 97 99 98 93 89 83 80 87
68 78 81 85 90 93 94 92 96 95 94 99 98 98 98 95 93 98 98 93 91 92

GFSNIL_prec_cthk_114.txt.gz
RH
60 58 59 60 57 58 68 68 69 63 59 60 53 49 50 54 59 61 53 46 46 49
70 70 66 66 65 63 63 67 71 71 67 63 62 52 50 53 60 59 55 50 49 50
63 62 64 69 67 68 67 68 69 71 71 68 64 64 54 54 60 59 56 52 48 50
65 63 63 66 70 69 70 66 63 66 68 69 71 72 67 59 61 60 57 54 47 48
69 66 63 62 65 68 68 63 65 66 66 67 72 81 77 63 60 58 58 57 49 47
77 73 68 66 68 68 69 69 68 69 69 71 81 89 84 74 64 59 61 58 53 51
75 75 69 66 65 66 68 68 66 66 74 82 88 92 88 81 72 63 64 61 58 54
76 71 70 75 81 80 78 79 76 74 80 90 93 95 98 87 79 71 70 66 63 61
75 76 73 79 73 81 83 83 81 80 84 86 86 96 93 94 89 73 75 72 67 67
74 79 83 84 78 72 78 77 74 77 75 78 93 93 92 99 93 78 73 76 72 74
79 79 80 83 83 83 83 87 93 95 88 96 98 99 94 99 94 85 80 80 80 77
79 82 82 81 84 89 88 89 96 97 92 93 97 93 96 99 94 90 86 84 82 84
59 69 78 83 85 87 88 86 99 95 96 96 97 96 97 98 99 96 91 93 89 90
51 51 53 63 75 82 85 86 88 92 91 94 98 98 99 99 97 98 97 95 95 97

GFSNIL_prec_cthk_117.txt.gz
RH
61 62 62 64 62 58 59 60 63 68 75 77 71 63 64 59 51 51 51 56 64 62
68 70 67 70 67 61 61 61 62 67 79 78 73 67 67 64 59 51 50 55 63 65
70 70 71 72 71 68 68 71 71 71 75 78 78 77 76 72 65 63 59 55 64 61
71 68 71 70 72 74 76 76 77 76 75 77 80 79 81 79 75 70 70 61 64 61
63 62 65 65 67 66 72 76 79 79 80 81 81 78 76 77 75 77 80 72 68 63
75 73 74 70 69 69 70 73 77 78 79 81 80 77 74 74 76 80 85 85 75 65
85 83 83 81 76 75 74 74 75 79 80 81 82 82 79 76 78 88 90 92 82 66
80 78 80 77 78 87 80 71 73 77 73 72 73 73 72 72 85 92 94 93 87 75
80 83 79 79 79 78 76 74 76 77 79 82 80 78 74 79 86 97 98 93 90 84
76 75 75 78 82 80 80 80 86 86 82 85 84 79 80 85 91 85 98 97 96 91
77 79 81 80 82 81 83 86 84 81 81 81 81 80 85 87 85 92 97 98 95 93
59 68 77 81 83 81 83 82 84 85 85 89 86 90 90 91 94 96 97 99 99 94
50 50 52 57 66 77 83 84 86 89 88 90 90 95 95 94 97 97 97 98 98 98
48 48 49 50 51 53 60 70 81 83 83 85 86 92 92 94 94 97 96 98 99 98

GFSNIL_prec_cthk_120.txt.gz
RH
91 87 75 71 66 62 60 59 58 62 68 78 78 72 74 73 65 63 62 56 52 53
77 74 71 67 62 62 62 60 64 64 65 72 82 82 82 83 77 71 70 67 59 52
65 63 61 66 70 72 72 70 69 68 71 73 70 76 85 89 85 79 78 72 68 65
75 70 70 71 70 72 72 74 71 72 73 75 76 77 85 91 89 84 84 82 77 70
76 73 72 71 72 71 71 75 76 80 81 81 79 81 83 84 86 84 84 85 85 79
84 81 77 76 72 72 72 72 79 78 83 84 80 81 83 84 83 84 85 83 80 75
70 70 71 72 73 72 75 76 75 76 80 81 83 81 81 81 81 82 82 81 79 76
75 77 81 84 84 81 82 86 88 84 79 80 80 79 80 84 83 84 84 84 84 80
85 80 81 81 85 87 88 86 87 85 83 85 83 82 79 84 75 77 79 80 81 90
77 81 79 82 82 79 82 85 86 87 85 85 81 79 80 78 81 86 86 84 84 90
73 77 80 81 82 82 81 83 83 82 82 82 81 81 89 84 85 89 88 88 89 94
49 49 56 66 75 81 84 80 79 80 82 89 86 83 82 83 87 89 88 90 92 95
47 46 47 48 48 50 54 66 76 81 79 81 80 81 84 89 94 96 95 96 93 96
41 43 45 46 46 46 46 47 49 53 59 70 77 80 85 87 90 91 95 97 98 98

GFSNIL_prec_cthk_123.txt.gz
RH
81 91 97 76 93 85 72 68 76 73 69 69 65 69 73 71 69 68 66 70 69 67
84 87 89 92 78 81 81 76 73 67 71 72 67 69 75 80 80 84 80 80 83 76
89 94 92 93 84 88 75 79 75 72 66 64 65 72 68 76 82 81 91 91 92 89
98 97 92 86 85 91 82 76 76 74 74 71 68 69 71 74 79 84 84 89 94 87
91 91 94 97 94 89 83 78 79 77 77 77 77 72 73 78 78 77 80 85 86 86
91 96 97 93 88 84 81 78 73 75 78 76 73 73 76 80 79 84 87 88 91 88
90 90 83 86 85 83 80 78 74 77 78 76 75 77 81 81 81 83 83 84 88 88
84 79 80 86 83 73 72 72 79 82 75 70 71 76 80 83 83 82 83 84 85 86
70 74 75 71 71 72 82 81 81 79 78 79 80 83 82 84 82 80 79 77 81 83
66 71 67 75 78 77 79 79 78 82 84 86 83 87 87 89 88 89 89 88 86 86
66 68 73 74 72 74 79 78 76 76 78 81 83 86 86 86 88 86 83 87 90 80
57 53 49 47 50 58 68 73 77 77 75 77 79 80 79 81 84 83 83 85 82 83
47 43 42 42 45 46 45 47 49 51 60 68 72 74 73 74 77 82 85 85 83 84
34 33 34 35 36 37 38 39 40 42 43 43 45 48 54 62 69 73 76 80 86 90